Regional Weather Roundup
Issued by NWS Spokane, WA

Home | Current Version | Previous Version | Text Only | Print | Product List | Glossary On
Versions: 1 2 3 4 5 6 7 8 9 10 11 12 13 14 15 16 17 18 19 20 21 22 23 24 25 26 27 28 29 30 31 32 33 34 35 36 37 38 39 40 41 42 43 44 45 46 47 48 49 50
000
NZUS01 KOTX 121010
RWROTX
EASTERN WASHINGTON/NORTHERN IDAHO ROUNDUP
NATIONAL WEATHER SERVICE, SPOKANE WA
200 AM PST FRI FEB 12 2016

Note: "fair" indicated few or no clouds below 12,000 feet with no
significant weather and/or obstructions to visibility.

...NORTHEAST WASHINGTON AND NORTHERN IDAHO PANHANDLE...

CITY           SKY/WX    TMP DP  RH WIND       PRES   REMARKS
SPOKANE INTL   CLOUDY    40  38  93 E10       30.20F
SPOKANE DOWNTO CLOUDY    41  39  93 CALM      30.23S
COEUR D ALENE  CLOUDY    37  36  93 NE10      30.20F
DEER PARK      CLOUDY    39  37  92 CALM      30.23R
SANDPOINT      CLOUDY    36  36 100 CALM      30.25S
BONNERS FERRY  CLOUDY    32  32 100 CALM      30.26F FOG

...SOUTHEAST WASHINGTON AND SOUTHERN IDAHO PANHANDLE...

CITY           SKY/WX    TMP DP  RH WIND       PRES   REMARKS
WALLA WALLA    FOG       41  41 100 SE7       30.20F VSB 1/2
PULLMAN/MOSCOW CLOUDY    43  39  86 E14       30.20F
LEWISTON       MOCLDY    47  38  71 SE6       30.19F
LOWELL           N/A     40  38  93 NW5       30.28S

...COLUMBIA BASIN...

CITY           SKY/WX    TMP DP  RH WIND       PRES   REMARKS
EPHRATA        CLOUDY    41  37  86 NW7       30.21R
MOSES LAKE     CLOUDY    38  37  97 N6        30.21S
TRI CITIES     MOCLDY    36  35  96 CALM      30.25R FOG
HERMISTON      CLOUDY    42  40  92 CALM      30.23S
PENDLETON      CLOUDY    40  39  97 E6        30.19F FOG

...EAST SLOPES CASCADES...

CITY           SKY/WX    TMP DP  RH WIND       PRES   REMARKS
THE DALLES     CLOUDY    44  42  93 N3        30.24R FOG
YAKIMA         CLOUDY    39  36  89 CALM      30.23R
ELLENSBURG     CLOUDY    36  33  89 CALM      30.20S FOG
WENATCHEE      CLOUDY    37  35  92 CALM      30.23R FOG
OMAK           LGT RAIN  34  32  92 S5        30.22F FOG     WCI  30

...SOUTHERN BRITISH COLUMBIA...

CITY           SKY/WX    TMP DP  RH WIND       PRES   REMARKS
PENTICTON      DRIZZLE   37  37 100 CALM      30.21S FOG
CRANBROOK      LGT RAIN  34  32  93 SW5       30.23F WCI  30

...WESTERN MONTANA...

CITY           SKY/WX    TMP DP  RH WIND       PRES   REMARKS
MISSOULA       LGT RAIN  36  34  92 CALM      30.26S FOG

...NEIGHBORING CITIES...

CITY           SKY/WX    TMP DP  RH WIND       PRES   REMARKS
SEATTLE        LGT RAIN  52  48  87 SE7       30.10S
CALGARY        FOG       28  28 100 SE10      30.22F VSB 1   WCI  19



USA.gov is the U.S. government's official web portal to all federal, state and local government web resources and services.